Regional Weather Roundup
Issued by NWS

Home | Current Version | Previous Version | Text Only | Print | Product List | Glossary Off
Versions: 1 2 3 4 5 6 7 8 9 10 11 12 13 14 15 16 17 18 19 20 21 22 23 24 25 26 27 28 29 30 31 32 33 34 35 36 37 38 39 40 41 42 43 44 45 46 47 48 49 50

423
ASUS45 KBOI 261910
RWRID

IDAHO REGIONAL WEATHER ROUNDUP
NATIONAL WEATHER SERVICE BOISE ID
100 PM MDT FRI MAY 26 2017

NOTE: "FAIR" INDICATES FEW OR NO CLOUDS BELOW 12000 FEET
WITH NO SIGNIFICANT WEATHER AND/OR OBSTRUCTIONS TO VISIBILITY

IDZ012-014-262000-
SOUTHWEST IDAHO


CITY           SKY/WX    TMP DP  RH WIND       PRES   REMARKS
BOISE          PTSUNNY   64  41  42 W21G26    29.90S
CALDWELL       MOSUNNY   65  43  44 SW7G16    29.91S
MOUNTAIN HOME  MOSUNNY   64  40  42 NW18G24   29.90S
$$

IDZ016-017-262000-
SOUTHCENTRAL IDAHO


CITY           SKY/WX    TMP DP  RH WIND       PRES   REMARKS
BURLEY         LGT RAIN  47  44  90 NE7       29.93R
JEROME         PTSUNNY   58  44  60 W12       29.92S
TWIN FALLS     RAIN      50  46  86 W9G21     29.93R FOG
$$

IDZ019>023-262000-
SOUTHEAST IDAHO


CITY           SKY/WX    TMP DP  RH WIND       PRES   REMARKS
IDAHO FALLS    LGT RAIN  43  41  93 N15G23    29.92R
POCATELLO      CLOUDY    45  42  89 S9        29.94R
REXBURG        RAIN      42  39  89 N8        29.91R
$$

IDZ006-010-011-018-031-032-262000-
CENTRAL IDAHO MOUNTAINS


CITY           SKY/WX    TMP DP  RH WIND       PRES   REMARKS
MCCALL         MOSUNNY   58  31  35 VRB7      29.93R
HAILEY         PTSUNNY   45  39  81 CALM      29.94S
STANLEY          N/A     49  35  58 VRB6      29.94R
SALMON         MOSUNNY   59  34  38 CALM      29.88F
CHALLIS        PTSUNNY   55  33  43 NE8       29.92R
$$

IDZ002-004-006-007-026-262000-
NORTHERN IDAHO


CITY           SKY/WX    TMP DP  RH WIND       PRES   REMARKS
LEWISTON       SUNNY     71  43  36 NW7       29.93F
LOWELL           N/A     67  43  41 S10       29.89S
COEUR D`ALENE  SUNNY     68  42  38 CALM      29.94S
MULLAN PASS    MOSUNNY   53  31  42 VRB6      29.99S
$$




USA.gov is the U.S. government's official web portal to all federal, state and local government web resources and services.